Tracking 31027 objects as of 19-Jul-2025
HD Live streaming from Space Station
objects crossing your sky now

SKYKRAFT-1B

Track SKYKRAFT-1B now!
10-day predictions


NORAD ID: 55058
Int'l Code: 2023-001BB
Perigee: 397.4 km
Apogee: 406.5 km
Inclination: 97.4 °
Period: 92.5 minutes
Semi major axis: 6772 km
RCS: Unknown
Launch date: January 3, 2023
Source: Australia (AUS)
Launch site: AIR FORCE EASTERN TEST RANGE (AFETR)
Your satellite tracking list
SL-16 DEB
Track 1 satellite(s)




NASA's NSSDC Master Catalog

Two Line Element Set (TLE):
1 55058U 23001BB  25199.63834572  .00038312  00000-0  51977-3 0  9992
2 55058  97.3639 269.9261 0006710 173.7649 186.3692 15.57533093141673
Source of the keplerian elements: AFSPC